FENGYUN 1C DEB, 31165

Orbit data source: Space-Track

FENGYUN 1C DEB, 31165 is space debris in SSO originally from a launch on Mon, 10 May 1999 UTC launched from the Taiyaun Space Center, China (TSC). Fengyun 1C debris stems from the Chinese weather satellite Fengyun-1C, which was intentionally destroyed by a Chinese anti-satellite missile in 2007. This event dramatically increased the amount of space debris, with thousands of trackable fragments posing hazards to satellites and human spaceflight. The Fengyun 1C debris cloud has become a focal point in discussions about space sustainability and the need for international regulations to prevent the creation of new debris.

Loading next visibility...
Identifier
31165, 1999-025BHT
Orbit
SSO
Country
Flag of CNCN / PRC
Related business
Manufacturer
Unknown
Mission
Spacecraft
Bus & Motor
Unknown
Mass
Unknown
Launch date (UTC)
1999-05-10 (27 years ago)
Launch vehicle
Unknown
Launch site
Taiyaun Space Center, China (TSC)
Object type
Payload
Rocket body
Debris
Shape & HBR
Unknown shape, 0.1 m
Radar Cross Section
Small (<0.1 m²)

Expand to show TLE details & history
Last TLE update: 6 hours ago

TLE from 6 hours ago
0 FENGYUN 1C DEB
1 31165U 99025BHT 26122.16530279  .00009854  00000-0  14731-2 0  9991
2 31165  98.8653 199.7433 0068362 156.5553 230.3778 14.73369291  8113
Epoch: 2026-05-02T03:58Z
TLE epoch observation values (Epoch: 2026-05-02T03:58:02.161Z)
Latitude
26.02969°
Longitude
-84.19797°
Altitude
684.385 km
Speed
7.5 km/s
True Right ascension
13h 01m 35s
True Declination
25° 53' 35"
Sunlit
Object was in full shadow at epoch
Visualization orbit readout
Latitude
Unknown
Longitude
Unknown
Altitude
Unknown
Speed
Unknown
Apparent Right ascension
Unknown
Apparent Declination
Unknown
Sunlit
N/A
Visualization observer readout
Local Sidereal Time
17:20:56
Azimuth
Unknown
Elevation
Unknown
Doppler factor
Unknown
Orbital elements
Apogee altitude
695.456 km
Perigee altitude
599.4 km
Semi-major axis
7,025.565 km
Eccentricity
0.00684
Inclination
98.8653°
RAAN
199.7433°
Arg. of periapsis
156.5553°
True anomaly
229.77768°
Mean anomaly
230.3778°
Eccentric anomaly
230.07741°
Mean motion
3.68571 °/min
Orbital period
97.67 mins
BSTAR
0.0014731
Loading maneuver chart data...
Computing Atmospheric mass density...

Documentation

Showing up to 5 results
|